| time (UTC) | temp F | wind direction | speed knots | gust knots | rain 1hr in | rain 24hr in | rain mn in | humidity % | barometer mb |
| 20260505002628 | 66 | 153 | 4.3 | 10.4 | 0.00 | 0.00 | 0.00 | 33 | 1009.2 |
| 20260505001621 | 67 | 32 | 1.7 | 7.8 | 0.00 | 0.00 | 0.00 | 35 | 1009.2 |
| 20260505000626 | 68 | 202 | 5.2 | 13.9 | 0.00 | 0.00 | 0.00 | 34 | 1009.1 |
| 20260504235641 | 68 | 184 | 9.6 | 12.2 | 0.00 | 0.00 | 0.00 | 30 | 1009.1 |
| 20260504234627 | 68 | 190 | 6.1 | 12.2 | 0.00 | 0.00 | 0.00 | 24 | 1009.0 |
| 20260504233616 | 68 | 184 | 5.2 | 10.4 | 0.00 | 0.00 | 0.00 | 26 | 1009.0 |
| 20260504232628 | 69 | 351 | 2.6 | 10.4 | 0.00 | 0.00 | 0.00 | 24 | 1009.0 |
| 20260504231616 | 69 | 165 | 2.6 | 9.6 | 0.00 | 0.00 | 0.00 | 25 | 1009.1 |
| 20260504230627 | 69 | 171 | 2.6 | 10.4 | 0.00 | 0.00 | 0.00 | 26 | 1009.0 |
| 20260504225613 | 69 | 344 | 3.5 | 11.3 | 0.00 | 0.00 | 0.00 | 26 | 1009.0 |
| 20260504224642 | 69 | 212 | 5.2 | 11.3 | 0.00 | 0.00 | 0.00 | 27 | 1009.1 |
| 20260504223627 | 68 | 5 | 2.6 | 12.2 | 0.00 | 0.00 | 0.00 | 27 | 1009.0 |
| 20260504222615 | 68 | 164 | 4.3 | 10.4 | 0.00 | 0.00 | 0.00 | 26 | 1009.0 |
| 20260504221621 | 68 | 215 | 5.2 | 9.6 | 0.00 | 0.00 | 0.00 | 27 | 1009.2 |
| 20260504220634 | 68 | 209 | 7.0 | 12.2 | 0.00 | 0.00 | 0.00 | 26 | 1009.3 |
| 20260504215615 | 68 | 335 | 1.7 | 10.4 | 0.00 | 0.00 | 0.00 | 27 | 1009.4 |
| 20260504214642 | 69 | 206 | 6.1 | 10.4 | 0.00 | 0.00 | 0.00 | 26 | 1009.6 |
| 20260504213630 | 69 | 315 | 2.6 | 10.4 | 0.00 | 0.00 | 0.00 | 25 | 1009.8 |
| 20260504212622 | 68 | 175 | 5.2 | 9.6 | 0.00 | 0.00 | 0.00 | 27 | 1010.0 |
| 20260504211631 | 68 | 200 | 6.1 | 12.2 | 0.00 | 0.00 | 0.00 | 26 | 1010.0 |
| 20260504210618 | 68 | 235 | 3.5 | 11.3 | 0.00 | 0.00 | 0.00 | 25 | 1010.1 |
| 20260504205637 | 68 | 244 | 6.1 | 14.8 | 0.00 | 0.00 | 0.00 | 28 | 1010.2 |
| 20260504204623 | 68 | 182 | 11.3 | 17.4 | 0.00 | 0.00 | 0.00 | 27 | 1010.5 |
| 20260504203615 | 67 | 231 | 8.7 | 13.9 | 0.00 | 0.00 | 0.00 | 29 | 1010.6 |
| 20260504202625 | 67 | 191 | 4.3 | 10.4 | 0.00 | 0.00 | 0.00 | 30 | 1010.5 |
| 20260504201613 | 67 | 196 | 7.0 | 16.5 | 0.00 | 0.00 | 0.00 | 30 | 1010.8 |
| 20260504200614 | 67 | 190 | 8.7 | 15.6 | 0.00 | 0.00 | 0.00 | 30 | 1010.8 |
| 20260504195634 | 66 | 182 | 5.2 | 8.7 | 0.00 | 0.00 | 0.00 | 31 | 1011.0 |
| 20260504194622 | 65 | 30 | 3.5 | 9.6 | 0.00 | 0.00 | 0.00 | 33 | 1011.0 |
| 20260504193630 | 64 | 327 | 8.7 | 12.2 | 0.00 | 0.00 | 0.00 | 31 | 1011.2 |
| 20260504192618 | 64 | 325 | 3.5 | 17.4 | 0.00 | 0.00 | 0.00 | 33 | 1011.2 |
| 20260504191630 | 65 | 355 | 9.6 | 15.6 | 0.00 | 0.00 | 0.00 | 32 | 1011.2 |
| 20260504190613 | 64 | 331 | 6.1 | 13.0 | 0.00 | 0.00 | 0.00 | 31 | 1011.4 |
| 20260504185635 | 64 | 360 | 6.1 | 15.6 | 0.00 | 0.00 | 0.00 | 34 | 1011.4 |
| 20260504184625 | 65 | 5 | 5.2 | 12.2 | 0.00 | 0.00 | 0.00 | 33 | 1011.5 |
| 20260504183619 | 65 | 355 | 1.7 | 11.3 | 0.00 | 0.00 | 0.00 | 33 | 1011.7 |
| 20260504182650 | 64 | 339 | 6.1 | 10.4 | 0.00 | 0.00 | 0.00 | 36 | 1011.8 |
| 20260504181640 | 65 | 43 | 5.2 | 8.7 | 0.00 | 0.00 | 0.00 | 33 | 1012.1 |
| 20260504180616 | 64 | 329 | 1.7 | 12.2 | 0.00 | 0.00 | 0.00 | 35 | 1012.2 |
| 20260504175619 | 64 | 22 | 3.5 | 15.6 | 0.00 | 0.00 | 0.00 | 37 | 1012.3 |
| 20260504174652 | 64 | 222 | 3.5 | 7.8 | 0.00 | 0.00 | 0.00 | 37 | 1012.3 |
| 20260504173640 | 64 | 194 | 1.7 | 6.1 | 0.00 | 0.00 | 0.00 | 39 | 1012.3 |
| 20260504172629 | 62 | 5 | 1.7 | 13.9 | 0.00 | 0.00 | 0.00 | 39 | 1012.4 |
| 20260504171619 | 62 | 100 | 3.5 | 12.2 | 0.00 | 0.00 | 0.00 | 40 | 1012.5 |
| 20260504170612 | 62 | 218 | 10.4 | 15.6 | 0.00 | 0.00 | 0.00 | 41 | 1012.4 |
| 20260504150631 | 60 | 155 | 2.6 | 4.3 | 0.00 | 0.00 | 0.00 | 38 | 1012.4 |
| 20260504140614 | 56 | 83 | 0.9 | 11.3 | 0.00 | 0.00 | 0.00 | 40 | 1012.5 |
| 20260504130630 | 55 | 163 | 6.1 | 12.2 | 0.00 | 0.00 | 0.00 | 39 | 1012.3 |
| 20260504110638 | 52 | 184 | 3.5 | 4.3 | 0.00 | 0.00 | 0.00 | 34 | 1012.1 |
| 20260504081627 | 50 | 148 | 0.0 | 0.9 | 0.00 | 0.00 | 0.00 | 37 | 1012.3 |
| 20260504080628 | 50 | 58 | 0.0 | 0.0 | 0.00 | 0.00 | 0.00 | 36 | 1012.4 |